This demonstration page uses our WeatherBlox Daily Observations layout. Learn more.

36.17497, -115.13722

Hourly Observations for May 7, 2015

Temp ( °F °C ) Dew Point ( °F °C ) Humidity (%) Winds ( mph kmh ) Pressure ( in mb ) Visibility ( mi km ) Precip ( " mm )
12:53 am 00:53 Clear 69 20.6 26 -3.3 20 20 SSW 9 15 29.63 1003 10 16.0934 0 0
1:53 am 01:53 Clear 68 20 27 -2.8 21 21 SSW 12 19 29.62 1003 10 16.0934 0 0
2:53 am 02:53 Clear 65 18.3 29 -1.7 26 26 S 6 9 29.62 1003 10 16.0934 0 0
3:53 am 03:53 Clear 64 17.8 25 -3.9 23 23 SSW 13 20 29.63 1003 10 16.0934 0 0
4:53 am 04:53 Clear 62 16.7 28 -2.2 28 28 S 9 15 29.65 1004 10 16.0934 0 0
5:53 am 05:53 Sunny 61 16.1 30 -1.1 31 31 SW 13 20 29.66 1005 10 16.0934 0 0
6:53 am 06:53 Sunny 61 16.1 30 -1.1 31 31 S 15 24 29.68 1005 10 16.0934 0 0
7:53 am 07:53 Sunny 63 17.2 29 -1.7 28 28 SSW 17 28 29.69 1005 10 16.0934 0 0
8:53 am 08:53 Sunny 65 18.3 27 -2.8 24 24 S 17 28 29.7 1006 10 16.0934 0 0
9:53 am 09:53 Sunny 68 20 25 -3.9 20 20 SSW 17 28 29.7 1006 10 16.0934 0 0
10:53 am 10:53 Sunny 70 21.1 23 -5 17 17 SSW 18 30 29.7 1006 10 16.0934 0 0
11:53 am 11:53 Sunny 71 21.7 26 -3.3 19 19 S 15 24 29.69 1005 10 16.0934 0 0
12:53 pm 12:53 Sunny 75 23.9 25 -3.9 15 15 SSW 14 22 29.66 1005 10 16.0934 0 0
1:50 pm 13:50 Mostly Cloudy 75 24 27 -3 16 16 SSE 17 28 29.56 1001 10 16.0934 0 0
1:53 pm 13:53 Mostly Cloudy 75 23.9 27 -2.8 17 17 SSE 25 41 29.63 1003 10 16.0934 0 0
2:53 pm 14:53 Partly Cloudy 77 25 30 -1.1 18 18 SSE 22 35 29.61 1003 10 16.0934 0 0
3:53 pm 15:53 Mostly Cloudy 75 23.9 27 -2.8 17 17 SSE 23 37 29.6 1002 10 16.0934 0 0
4:53 pm 16:53 Partly Cloudy 75 23.9 25 -3.9 15 15 S 30 48 29.59 1002 10 16.0934 0 0
5:53 pm 17:53 Sunny 74 23.3 23 -5 15 15 SSE 31 50 29.59 1002 10 16.0934 0 0
6:53 pm 18:53 Sunny 72 22.2 22 -5.6 15 15 S 22 35 29.6 1002 10 16.0934 0 0
7:53 pm 19:53 Clear 70 21.1 22 -5.6 16 16 S 25 41 29.61 1003 10 16.0934 0 0
8:53 pm 20:53 Clear 68 20 22 -5.6 17 17 SSE 18 30 29.62 1003 10 16.0934 0 0
9:53 pm 21:53 Clear 66 18.9 25 -3.9 21 21 SW 12 19 29.65 1004 10 16.0934 0 0
10:53 pm 22:53 Clear 63 17.2 27 -2.8 26 26 SW 9 15 29.66 1005 10 16.0934 0 0
11:53 pm 23:53 Clear 60 15.6 28 -2.2 30 30 SW 12 19 29.69 1005 10 16.0934 0 0

Powered by AerisWeather